• MPC Preparation (Info)

  • MPEC 2014-R35 : 2014 QZ432

    The following Minor Planet Electronic Circular may be linked-to from your own Web pages, but must not otherwise be redistributed electronically.

    A form allowing access to any MPEC is at the bottom of this page.


    Read MPEC 2014-R34 Read MPEC 2014-R36


    M.P.E.C. 2014-R35                                Issued 2014 Sept. 4, 15:38 UT
    
         The Minor Planet Electronic Circulars contain information on unusual
             minor planets and routine data on comets.  They are published
       on behalf of Commission 20 of the International Astronomical Union by the
              Minor Planet Center, Smithsonian Astrophysical Observatory,
                              Cambridge, MA 02138, U.S.A.
    
                 Prepared using the Tamkin Foundation Computer Network
    
                                  MPC@CFA.HARVARD.EDU
                URL https://www.minorplanetcenter.net/    ISSN 1523-6714
    
                                      2014 QZ432
    
    Observations:
         K14Qh2Z  C2014 08 27.53315 00 47 41.665+08 00 29.21         20.2 wLER035F51
         K14Qh2Z  C2014 08 27.54676 00 47 41.246+08 00 25.25         20.1 wLER035F51
         K14Qh2Z  C2014 08 27.56040 00 47 40.825+08 00 21.25         20.3 wLER035F51
         K14Qh2Z  C2014 08 27.57403 00 47 40.412+08 00 17.21         20.2 wLER035F51
         K14Qh2Z* C2014 08 30.45515 00 46 18.251+07 44 53.93         20.7 wLER035F51
         K14Qh2Z  C2014 08 30.46661 00 46 17.805+07 44 49.99         20.8 wLER035F51
         K14Qh2Z  C2014 08 30.47817 00 46 17.383+07 44 45.90         20.7 wLER035F51
         K14Qh2Z  C2014 08 30.48966 00 46 16.933+07 44 42.01         20.7 wLER035F51
         K14Qh2Z KC2014 09 01.05965 00 45 22.80 +07 35 07.3          20.5 VqER035958
         K14Qh2Z KC2014 09 01.06847 00 45 22.42 +07 35 03.7          20.8 VqER035958
         K14Qh2Z KC2014 09 01.07767 00 45 22.06 +07 35 00.4          21.0 VqER035958
         K14Qh2Z KC2014 09 01.27108 00 45 15.22 +07 33 48.1          21.2 VqER035H21
         K14Qh2Z KC2014 09 01.27938 00 45 14.92 +07 33 44.8          20.5 VqER035H21
         K14Qh2Z KC2014 09 03.29092800 43 56.12 +07 20 25.7          20.4 VuER035H21
         K14Qh2Z KC2014 09 03.29664200 43 55.85 +07 20 23.6          20.6 VuER035H21
         K14Qh2Z KC2014 09 03.30247300 43 55.58 +07 20 21.0          20.5 VuER035H21
         K14Qh2Z KC2014 09 03.48863 00 43 47.24 +07 19 05.1          20.2 RoER035291
         K14Qh2Z KC2014 09 03.49154 00 43 47.11 +07 19 04.1          19.9 RoER035291
         K14Qh2Z KC2014 09 03.49444 00 43 46.97 +07 19 03.0          20.0 RoER035291
    
    Observer details:
    291 LPL/Spacewatch II.  Observer J. V. Scotti.  1.8-m f/2.7 reflector + CCD.
    958 Observatoire de Dax.  Observers P. Dupouy, J. B. de Vanssay.  Measurer
        P. Dupouy.  0.43-m f/2.7 reflector + CCD.
    F51 Pan-STARRS 1, Haleakala.  Observers N. Primak, A. Schultz, T. Goggia,
        M. Willman.  Measurers B. Bolin, K. Chambers, S. Chastel, L. Denneau,
        H. Flewelling, M. Huber, E. Magnier, E. Schunova, R. Wainscoat, C. Waters.
        1.8-m Ritchey-Chretien + CCD.
    H21 Astronomical Research Observatory, Westfield.  Observers R. Holmes,
        T. Linder.  Measurers L. Buzzi, S. Foglia, T. Vorobjov, T. Linder,
        R. Holmes, M. Urbanik.  0.61-m f/4.0 astrograph + CCD, 0.61-m f/4.5
        astrograph + CCD, 0.76-m f/3.0 astrograph + CCD.
    
    Orbital elements:
    2014 QZ432                                               Earth MOID = 0.2657 AU
    Epoch 2014 Dec. 9.0 TT = JDT 2457000.5                  MPC
    M  50.16905              (2000.0)            P               Q
    n   0.27171678     Peri.   87.41203     +0.32721878     +0.94486838
    a   2.3607957      Node   201.70045     -0.87966917     +0.29982855
    e   0.4586301      Incl.    1.90841     -0.34512320     +0.13163052
    P   3.63           H   19.5           G   0.15           U   7
    Residuals in seconds of arc
    140827 F51  0.0   0.0     140830 F51  0.1-  0.1+    140903 H21  0.1+  0.0
    140827 F51  0.0   0.0     140901 958  0.2+  0.1-    140903 H21  0.1+  0.1-
    140827 F51  0.0   0.0     140901 958  0.1-  0.4-    140903 291  0.1-  0.1-
    140827 F51  0.1+  0.0     140901 958  0.2+  0.2-    140903 291  0.1-  0.1+
    140830 F51  0.0   0.1+    140901 H21  0.3+  0.1-    140903 291  0.2-  0.3+
    140830 F51  0.2-  0.1+    140901 H21  1.0+  0.3-
    140830 F51  0.0   0.0     140903 H21  0.2+  0.2-
    
    Ephemeris:
    2014 QZ432               a,e,i = 2.36, 0.46, 2                   q = 1.2781
    Date    TT    R. A. (2000) Decl.     Delta      r     Elong.  Phase     V
    2014 08 05    00 44 08.9 +08 18 22   0.6036  1.4088   118.9    39.1    20.7
    ...
    2014 08 20    00 49 26.4 +08 27 19   0.5921  1.4753   132.0    30.7    20.5
    ...
    2014 08 28    00 47 29.8 +07 58 14   0.5923  1.5142   140.3    25.2    20.4
    ...
    2014 09 03    00 44 07.9 +07 22 34   0.5970  1.5446   147.1    20.8    20.3
    2014 09 04    00 43 26.2 +07 15 37   0.5982  1.5498   148.3    20.0    20.3
    2014 09 05    00 42 42.4 +07 08 24   0.5996  1.5550   149.5    19.2    20.3
    ...
    2014 09 11    00 37 42.9 +06 20 26   0.6110  1.5866   156.7    14.5    20.2
    ...
    2014 09 19    00 29 58.0 +05 07 49   0.6356  1.6300   166.8     8.1    20.1
    ...
    2014 10 04    00 15 36.5 +02 51 49   0.7155  1.7138   174.1     3.4    20.3
    
    A. U. Tomatic                (C) Copyright 2014 MPC           M.P.E.C. 2014-R35
    

    Read MPEC 2014-R34 Read MPEC 2014-R36


    MPEC number:

    Enter an MPEC number in one of the following forms:

    • 1997-B01 (the full form)
    • J97B01 (the packed version of the full form)
    • B01 (the abbreviated form)